Theta_e
282 282 282 282 282 282 283 282 282 282 283 284 284 284 283 282 282 281 280 280 280 279 278 278 278 278 277 277 277 277 277 277 274 275 277 277 277 277 278 277 278 277 278
282 282 282 282 282 282 283 283 282 282 282 283 283 283 282 281 281 280 280 279 279 278 278 278 277 278 276 277 277 276 276 276 276 274 275 276 276 276 276 275 277 278 276
281 281 281 282 282 282 282 282 282 281 281 282 282 282 281 281 280 280 280 279 279 278 278 278 277 277 277 277 277 276 276 278 276 275 274 275 275 275 274 275 274 274 275
281 281 281 282 282 283 282 282 281 281 280 281 281 281 280 280 280 280 280 279 278 278 279 278 278 277 277 277 277 276 276 275 274 273 273 273 273 274 273 271 270 272 270
280 280 280 281 282 282 281 281 281 280 280 280 279 278 279 279 280 279 279 278 278 278 278 279 278 278 280 279 276 274 274 273 272 272 271 270 268 269 269 269 266 267 267
280 280 280 280 281 280 280 280 280 280 280 280 279 278 278 280 284 283 280 278 279 278 277 277 277 277 280 281 280 279 276 272 271 271 269 268 269 268 267 265 264 262 261
279 280 280 280 280 280 280 280 279 279 279 278 278 278 277 278 285 284 282 279 277 276 275 275 274 275 274 274 277 277 276 277 275 270 267 267 266 267 265 262 262 260 259
279 279 279 279 279 279 279 279 278 278 278 277 276 276 277 280 285 284 280 274 272 271 271 270 270 270 271 270 270 268 267 269 270 269 267 267 267 267 265 263 257 256 256
278 278 278 278 277 277 277 276 276 276 275 275 275 276 279 282 284 282 276 272 269 268 268 269 269 268 277 275 268 265 263 262 266 267 267 267 266 266 266 257 251 253 251
273 275 275 276 277 274 274 275 274 275 275 277 277 279 281 281 282 279 273 270 268 267 266 267 275 273 275 273 265 263 259 257 259 256 256 257 258 258 261 258 255 251 250
270 272 273 274 274 274 273 274 275 276 278 277 276 278 279 278 278 278 276 269 267 267 267 266 272 276 274 273 271 265 260 257 255 252 253 254 254 255 255 254 254 253 250
269 270 271 273 274 274 274 275 276 276 275 274 274 274 275 276 278 278 276 273 272 268 268 269 271 272 272 270 267 265 262 256 252 250 247 247 248 250 251 252 251 251 252
267 268 270 272 273 273 274 274 274 274 273 272 272 271 272 274 275 278 276 275 274 269 269 271 271 267 264 263 265 262 256 253 248 246 245 244 245 249 247 247 247 249 250
266 267 268 270 271 272 273 273 273 272 270 269 268 267 268 268 268 268 270 270 270 267 267 264 265 264 263 258 256 255 254 252 250 247 247 249 245 244 245 246 248 250 249
266 267 267 268 268 268 269 269 269 270 271 269 268 268 267 266 268 269 267 265 263 263 259 259 258 256 255 254 253 252 251 251 249 249 246 246 247 248 248 248 248 248 247
265 266 267 267 268 269 269 271 276 275 275 274 273 271 270 273 274 273 271 270 268 263 257 255 254 254 252 252 250 250 250 249 248 248 246 244 246 246 247 248 248 246 247
265 266 267 268 268 269 269 269 269 274 276 276 277 275 275 274 272 270 269 267 264 259 254 253 252 252 251 250 249 248 247 248 247 246 246 246 246 246 246 246 247 247 247
265 267 267 268 269 269 269 269 269 268 269 270 274 272 272 271 270 268 265 258 252 253 252 250 249 249 249 248 247 244 244 244 244 245 245 244 243 243 244 245 246 246 246
262 262 262 262 262 262 262 262 262 261 260 259 260 262 267 268 266 263 259 252 250 249 248 247 248 246 246 244 242 240 239 240 242 242 240 242 243 240 244 245 246 246 246
261 262 262 261 261 261 261 260 259 258 258 257 255 254 254 254 251 250 250 249 248 248 247 246 244 243 240 238 237 237 237 238 240 240 242 242 243 242 244 244 245 245 246
260 260 260 260 259 259 258 257 257 256 255 254 253 255 257 251 249 249 248 247 246 244 244 243 241 238 237 235 234 235 236 240 241 241 241 242 243 242 245 245 245 245 246
259 258 258 257 257 257 256 256 255 255 255 254 256 258 256 249 249 248 246 243 241 240 239 238 237 236 237 237 238 237 238 240 242 241 241 242 243 243 244 244 245 246 247
257 256 256 255 255 255 254 254 254 253 252 251 250 249 248 247 246 244 242 239 238 237 236 234 234 237 238 238 238 238 239 242 243 240 242 242 243 244 245 245 246 247 248
256 256 255 254 254 253 253 252 252 251 251 250 249 248 247 246 244 241 237 236 235 234 234 234 235 238 239 240 239 239 240 242 242 243 241 242 243 244 246 246 248 249 250
255 254 254 253 252 252 251 251 250 250 249 248 247 246 245 243 239 237 235 234 234 234 236 237 237 238 240 240 241 241 243 246 245 245 245 244 244 245 246 247 249 250 251
253 253 252 252 251 251 250 250 249 248 247 246 245 244 242 237 236 234 234 234 235 236 238 238 239 240 241 242 242 245 247 252 252 252 248 247 247 248 250 252 254 255 255
Wind_Speed
8 7 8 8 8 8 9 8 9 8 9 10 10 10 9 8 6 6 5 6 6 6 5 6 5 5 3 4 3 3 3 3 3 0 2 1 1 3 3 3 4 4 3
7 7 8 7 7 9 9 9 9 9 8 9 8 9 9 8 8 7 7 7 8 7 6 6 6 4 5 4 3 5 4 4 3 2 2 2 1 3 3 5 6 6 5
7 7 7 8 9 10 9 9 9 8 8 9 10 10 8 8 8 8 8 7 6 7 6 7 6 6 5 4 4 5 4 4 4 2 1 1 1 2 5 3 6 5 7
7 7 8 9 10 9 8 8 9 9 9 9 9 8 8 8 8 7 8 9 7 6 6 6 6 6 6 6 6 5 4 4 3 2 1 1 1 3 3 6 7 6 9
7 7 7 6 6 6 7 8 8 8 8 8 9 8 8 9 7 7 8 8 9 9 8 8 7 8 12 9 5 5 5 4 2 2 1 2 2 4 6 6 7 8 8
6 6 6 7 6 6 7 8 9 8 8 9 9 10 9 6 16 17 13 9 10 10 10 9 8 8 13 16 15 13 8 4 5 1 1 2 5 6 5 6 7 8 7
5 5 6 6 7 7 7 8 9 9 9 9 9 9 8 6 19 19 19 9 10 10 10 9 8 6 8 7 12 14 14 13 16 8 5 6 4 7 7 7 7 7 8
5 5 5 6 6 6 7 7 7 7 9 9 8 8 9 6 19 21 21 11 10 9 8 8 9 6 6 7 8 9 10 10 10 8 7 6 6 8 7 6 2 6 5
4 5 4 6 7 7 6 7 6 8 7 6 8 10 11 10 21 21 18 12 12 10 8 7 6 5 9 14 9 8 7 8 10 13 12 12 13 14 12 4 4 7 5
4 3 4 5 6 7 7 9 4 8 9 8 9 8 13 14 20 20 17 11 12 8 5 5 11 10 17 16 9 6 6 5 6 7 7 8 8 9 13 7 5 4 5
4 6 6 6 8 8 7 8 9 11 12 12 12 11 14 14 15 21 21 10 10 8 6 4 5 19 16 15 14 8 6 4 6 3 3 4 5 5 5 5 3 4 4
6 8 8 8 7 7 11 9 11 13 13 13 14 12 10 11 17 20 21 20 16 10 8 6 9 16 15 14 11 14 13 8 3 3 3 3 4 5 6 7 8 8 7
8 8 9 9 9 8 11 11 10 11 11 10 11 11 9 7 9 23 23 22 20 11 7 13 17 15 15 13 15 13 9 4 3 3 3 3 3 5 6 6 5 8 11
8 8 7 9 10 9 7 7 9 9 9 10 10 10 9 9 9 8 9 11 17 12 14 9 12 13 15 11 8 8 5 4 3 1 2 5 4 4 4 3 5 8 8
7 7 8 7 9 9 8 7 7 6 8 11 10 10 11 9 8 14 11 8 7 10 9 6 5 5 5 5 5 4 4 4 4 4 3 5 5 6 6 4 4 7 5
6 6 6 7 7 8 10 10 19 19 23 23 22 15 9 18 21 20 19 18 17 12 5 4 5 5 5 4 4 4 3 4 3 5 3 3 6 6 8 8 6 6 9
6 6 6 8 8 9 10 11 14 18 26 25 25 26 24 22 23 20 19 18 14 10 6 5 5 4 3 3 3 3 3 4 5 4 4 5 6 7 8 8 8 8 11
4 6 6 7 8 9 9 10 11 12 13 13 20 19 21 21 20 19 18 12 7 8 5 5 4 3 2 2 2 2 3 4 3 4 5 5 5 5 8 8 8 10 11
6 5 7 8 9 10 9 10 10 10 10 9 9 14 14 20 19 16 14 6 6 5 4 3 3 2 1 1 2 3 2 4 4 5 4 5 6 3 8 8 9 14 14
7 11 10 9 9 10 9 10 9 9 9 9 8 6 4 5 5 6 6 5 5 4 3 3 1 0 1 2 2 3 4 4 4 4 5 5 6 5 8 10 10 11 12
6 7 11 9 9 9 9 9 8 8 8 7 5 5 10 6 5 5 4 4 3 2 2 1 1 2 2 3 2 3 3 5 5 5 5 6 6 8 8 9 11 12 12
6 7 9 8 9 10 9 8 8 9 8 6 6 8 14 5 5 4 3 2 1 0 1 2 2 3 3 3 3 3 4 5 6 5 6 7 7 8 8 10 11 12 12
7 10 10 9 10 12 10 8 8 8 7 6 6 5 4 4 3 3 2 0 1 2 1 1 3 4 4 4 4 4 5 7 7 4 7 8 8 9 9 11 12 13 12
9 10 10 9 8 9 8 8 7 9 7 6 5 4 3 3 3 1 1 1 2 3 2 3 3 5 5 5 4 5 6 7 7 8 8 8 10 11 10 12 12 15 15
9 10 9 9 8 8 8 7 7 6 5 5 4 3 2 2 1 1 2 2 3 3 4 4 3 6 8 9 9 10 10 14 11 11 8 10 13 15 14 12 14 14 18
9 10 8 8 7 7 7 6 6 5 5 4 3 3 2 1 2 2 3 3 3 3 5 4 5 9 10 8 10 12 13 15 14 15 11 9 10 11 11 14 19 15 19
Wind_Direction
181 175 168 174 169 162 170 166 170 156 163 170 171 166 162 161 157 150 142 142 145 141 131 134 127 128 113 101 92 85 71 75 105 75 78 58 107 24 12 357 336 321 353
178 170 180 164 161 170 174 172 161 168 163 163 160 163 158 155 150 153 151 151 150 149 143 132 129 121 104 94 85 82 79 53 105 117 54 14 351 40 358 332 347 345 339
166 166 167 173 173 182 177 167 165 156 157 155 155 159 162 156 151 147 143 144 140 135 137 134 136 125 109 100 89 87 73 78 65 90 9 2 304 31 345 344 332 327 327
172 171 177 182 185 180 169 162 163 160 153 157 158 150 148 145 142 144 141 138 128 125 124 119 119 116 118 112 97 96 90 80 69 74 61 328 355 356 335 334 336 341 326
173 174 184 165 162 153 156 157 151 155 156 151 138 134 139 143 145 136 132 130 124 113 102 102 99 107 111 107 105 93 93 87 85 77 51 22 326 345 350 354 324 318 317
178 179 153 150 154 158 148 150 148 146 145 143 146 144 144 145 158 150 136 128 120 116 107 95 93 89 107 104 98 93 100 95 73 71 55 29 12 354 345 340 322 329 332
165 156 153 154 156 150 142 143 151 150 144 145 140 140 138 133 154 148 135 120 117 116 116 111 97 86 83 87 87 80 60 57 66 62 61 35 353 355 348 326 324 314 292
144 147 147 146 135 131 135 139 131 141 144 141 134 126 127 141 147 138 121 105 97 91 98 104 110 109 113 99 100 84 68 64 58 52 40 15 356 352 336 349 327 290 279
134 147 147 139 128 127 128 125 122 119 114 117 128 130 134 131 135 130 110 102 98 92 94 95 103 101 109 107 95 95 78 50 32 29 23 15 8 355 353 9 350 341 316
19 116 105 110 119 108 113 115 87 106 112 116 111 115 122 119 129 127 112 112 107 104 74 67 109 101 97 83 87 95 81 33 27 14 10 10 10 356 5 13 339 319 305
22 71 76 80 95 102 94 106 114 114 113 106 102 99 107 116 127 129 120 112 119 111 96 66 74 89 86 76 86 79 96 65 23 29 2 359 357 352 344 332 303 292 278
55 69 72 82 91 99 107 107 111 115 111 108 103 95 89 98 116 118 117 115 117 108 98 79 86 78 77 75 66 64 59 60 41 27 17 345 347 335 327 316 303 283 254
70 73 81 87 90 99 113 116 114 116 117 114 109 107 103 107 112 115 113 113 107 97 105 100 89 85 72 54 62 59 55 44 36 29 353 299 270 285 294 293 274 264 274
80 80 84 95 95 91 96 107 118 122 120 118 118 110 105 96 89 77 82 84 78 76 86 89 89 78 74 74 54 47 41 31 24 348 322 306 294 314 297 251 298 318 309
84 89 90 87 92 89 75 88 99 85 125 129 123 122 121 105 107 111 108 107 110 114 99 82 77 66 61 54 49 40 30 19 11 346 321 322 318 318 314 313 295 310 274
100 97 103 106 104 103 107 106 101 112 117 116 116 113 110 123 121 116 110 109 111 111 68 88 80 70 60 42 26 7 7 6 351 338 319 296 314 315 314 317 302 288 292
110 117 112 113 115 116 117 118 119 115 116 116 114 105 105 114 111 105 99 94 89 86 91 87 87 77 68 49 23 4 341 331 325 311 304 309 313 310 312 308 305 300 301
74 88 107 112 112 115 119 119 117 118 118 111 105 105 103 105 103 99 94 83 66 60 80 91 94 88 67 37 1 321 302 320 314 309 307 300 294 287 306 302 303 300 301
86 81 88 84 81 84 86 89 91 91 90 91 79 63 82 94 87 83 77 84 98 91 87 89 86 75 40 334 297 300 277 292 292 306 291 282 284 265 296 293 294 295 293
87 102 99 99 98 95 95 96 94 89 87 84 82 78 64 67 73 71 66 77 85 90 93 95 98 196 269 270 284 279 296 298 290 274 275 276 287 280 287 291 292 294 293
99 98 100 94 95 96 96 94 94 93 90 84 88 119 113 102 101 93 95 85 92 98 120 135 255 262 253 254 254 266 260 279 277 273 270 286 292 292 284 282 286 282 285
104 101 94 98 98 94 92 92 93 96 97 99 97 90 97 84 95 100 93 89 95 124 176 194 247 239 244 243 250 256 265 277 286 269 279 282 284 283 285 286 286 287 292
106 101 96 93 95 99 93 92 98 100 99 91 91 95 83 87 96 93 97 79 327 304 292 226 250 277 251 247 228 226 250 270 270 254 277 285 286 286 286 286 289 296 297
103 101 103 98 94 94 96 98 98 100 105 100 101 99 100 104 100 76 317 302 306 292 276 251 241 259 281 276 248 238 241 256 256 259 243 265 277 285 280 282 287 292 290
96 97 95 98 99 102 107 103 102 103 105 111 111 110 110 103 80 300 289 287 284 284 282 277 264 270 279 285 281 275 268 274 264 261 253 246 258 271 272 280 285 288 287
90 91 93 98 99 103 107 110 109 111 112 112 113 115 135 165 245 265 279 292 293 293 299 286 283 284 285 282 277 278 281 281 276 257 236 242 256 269 273 280 292 295 294